• In Hungary
  • List of Countries
  • For 7 days
  • Water Temperature
  • Satellite Maps
  • Weather Map
  • News
  • Weather Widgets
  • user-avatar
    Login

    Hourly Weather Perevoloka

    Today, 21 July, Saturday

    Time Temperature Precipitation Wind Pressure Humidity
    00:00 +19°C° 0 mm 1 mps 732 mmHg 97%
    01:00 +19°C° 0 mm 1 mps 732 mmHg 98%
    02:00 +19°C° 0 mm 1 mps 732 mmHg 98%
    03:00 +19°C° 0 mm 1 mps 732 mmHg 98%
    04:00 +19°C° 0 mm 1 mps 732 mmHg 98%
    05:00 +19°C° 0 mm 1 mps 732 mmHg 98%
    06:00 +21°C° 0 mm 1 mps 732 mmHg 95%
    07:00 +22°C° 0 mm 1 mps 733 mmHg 92%
    08:00 +23°C° 0 mm 1 mps 733 mmHg 88%
    09:00 +24°C° 0.5 mm 1 mps 733 mmHg 85%
    10:00 +25°C° 0.5 mm 1 mps 733 mmHg 82%
    11:00 +25°C° 0.5 mm 1 mps 733 mmHg 79%
    12:00 +26°C° 1.5 mm 1 mps 733 mmHg 76%
    13:00 +27°C° 1.5 mm 1 mps 733 mmHg 73%
    14:00 +28°C° 1.5 mm 1 mps 733 mmHg 71%
    15:00 +27°C° 1.7 mm 1 mps 733 mmHg 76%
    16:00 +26°C° 1.7 mm 1 mps 733 mmHg 82%
    17:00 +26°C° 1.7 mm 1 mps 733 mmHg 87%
    18:00 +24°C° 0.4 mm 1 mps 733 mmHg 89%
    19:00 +23°C° 0.4 mm 1 mps 733 mmHg 91%
    20:00 +22°C° 0.4 mm 1 mps 734 mmHg 93%
    21:00 +21°C° 0 mm 1 mps 734 mmHg 94%
    22:00 +21°C° 0 mm 1 mps 734 mmHg 95%
    23:00 +20°C° 0 mm 1 mps 734 mmHg 96%

    Tomorrow, 22 July, Sunday

    Time Temperature Precipitation Wind Pressure Humidity
    00:00 +20°C° 0 mm 1 mps 734 mmHg 96%
    01:00 +20°C° 0 mm 1 mps 734 mmHg 96%
    02:00 +20°C° 0 mm 1 mps 734 mmHg 96%
    03:00 +20°C° 0.1 mm 1 mps 734 mmHg 96%
    04:00 +20°C° 0.1 mm 1 mps 734 mmHg 96%
    05:00 +20°C° 0.1 mm 1 mps 734 mmHg 96%
    06:00 +21°C° 0.3 mm 1 mps 735 mmHg 94%
    07:00 +22°C° 0.3 mm 1 mps 735 mmHg 92%
    08:00 +23°C° 0.3 mm 1 mps 735 mmHg 91%
    09:00 +23°C° 0.8 mm 2 mps 735 mmHg 89%
    10:00 +24°C° 0.8 mm 2 mps 735 mmHg 87%
    11:00 +25°C° 0.8 mm 2 mps 735 mmHg 86%
    12:00 +25°C° 0.6 mm 2 mps 735 mmHg 85%
    13:00 +25°C° 0.6 mm 2 mps 735 mmHg 84%
    14:00 +25°C° 0.6 mm 2 mps 735 mmHg 83%
    15:00 +24°C° 0.5 mm 2 mps 736 mmHg 84%
    16:00 +24°C° 0.5 mm 2 mps 736 mmHg 86%
    17:00 +23°C° 0.5 mm 2 mps 736 mmHg 87%
    18:00 +21°C° 0.1 mm 2 mps 736 mmHg 89%
    19:00 +20°C° 0.1 mm 2 mps 736 mmHg 91%
    20:00 +20°C° 0.1 mm 2 mps 736 mmHg 93%
    21:00 +20°C° 0 mm 2 mps 736 mmHg 93%
    22:00 +19°C° 0 mm 2 mps 736 mmHg 94%
    23:00 +19°C° 0 mm 2 mps 736 mmHg 95%

    Day after tomorrow, 23 July, Monday

    Time Temperature Precipitation Wind Pressure Humidity
    00:00 +19°C° 0 mm 2 mps 736 mmHg 95%
    01:00 +20°C° 0 mm 1 mps 736 mmHg 95%
    02:00 +20°C° 0 mm 1 mps 737 mmHg 95%
    03:00 +20°C° 0 mm 1 mps 737 mmHg 95%
    04:00 +19°C° 0 mm 2 mps 737 mmHg 95%
    05:00 +18°C° 0 mm 2 mps 737 mmHg 95%
    06:00 +19°C° 0 mm 2 mps 737 mmHg 90%
    07:00 +20°C° 0 mm 2 mps 737 mmHg 86%
    08:00 +21°C° 0 mm 2 mps 737 mmHg 82%
    09:00 +22°C° 0 mm 3 mps 737 mmHg 73%
    10:00 +25°C° 0 mm 3 mps 737 mmHg 65%
    11:00 +26°C° 0 mm 3 mps 737 mmHg 56%
    12:00 +26°C° 0.1 mm 3 mps 737 mmHg 57%
    13:00 +26°C° 0.1 mm 3 mps 737 mmHg 58%
    14:00 +26°C° 0.1 mm 3 mps 737 mmHg 58%
    15:00 +25°C° 0.3 mm 3 mps 737 mmHg 64%
    16:00 +25°C° 0.3 mm 3 mps 737 mmHg 70%
    17:00 +24°C° 0.3 mm 3 mps 737 mmHg 75%
    18:00 +22°C° 0.1 mm 3 mps 737 mmHg 80%
    19:00 +20°C° 0.1 mm 2 mps 737 mmHg 86%
    20:00 +19°C° 0.1 mm 2 mps 737 mmHg 91%
    21:00 +18°C° 0 mm 2 mps 737 mmHg 93%
    22:00 +17°C° 0 mm 2 mps 738 mmHg 95%
    23:00 +17°C° 0 mm 2 mps 738 mmHg 97%

    24 July, Tuesday

    Time Temperature Precipitation Wind Pressure Humidity
    00:00 +16°C° 0 mm 2 mps 738 mmHg 97%
    01:00 +16°C° 0 mm 2 mps 738 mmHg 98%
    02:00 +16°C° 0 mm 2 mps 738 mmHg 98%
    03:00 +16°C° 0 mm 2 mps 738 mmHg 97%
    04:00 +16°C° 0 mm 2 mps 738 mmHg 97%
    05:00 +16°C° 0 mm 2 mps 738 mmHg 96%
    06:00 +17°C° 0 mm 3 mps 738 mmHg 93%
    07:00 +17°C° 0 mm 3 mps 738 mmHg 90%
    08:00 +18°C° 0 mm 3 mps 738 mmHg 88%
    09:00 +19°C° 0 mm 3 mps 738 mmHg 84%
    10:00 +19°C° 0 mm 3 mps 738 mmHg 80%
    11:00 +20°C° 0 mm 3 mps 739 mmHg 76%
    12:00 +21°C° 0 mm 3 mps 739 mmHg 75%
    13:00 +21°C° 0 mm 3 mps 739 mmHg 74%
    14:00 +22°C° 0 mm 3 mps 739 mmHg 74%
    15:00 +21°C° 0.1 mm 3 mps 739 mmHg 76%
    16:00 +21°C° 0.1 mm 3 mps 739 mmHg 79%
    17:00 +21°C° 0.1 mm 3 mps 739 mmHg 82%
    18:00 +20°C° 0.1 mm 2 mps 739 mmHg 86%
    19:00 +20°C° 0.1 mm 2 mps 739 mmHg 90%
    20:00 +19°C° 0.1 mm 2 mps 739 mmHg 95%
    21:00 +19°C° 0.2 mm 2 mps 739 mmHg 95%
    22:00 +19°C° 0.2 mm 2 mps 739 mmHg 96%
    23:00 +19°C° 0.2 mm 2 mps 739 mmHg 97%

    25 July, Wednesday

    Time Temperature Precipitation Wind Pressure Humidity
    00:00 +19°C° 0 mm 2 mps 739 mmHg 97%
    01:00 +19°C° 0 mm 2 mps 739 mmHg 98%
    02:00 +18°C° 0 mm 2 mps 739 mmHg 98%
    03:00 +19°C° 0 mm 3 mps 739 mmHg 98%
    04:00 +19°C° 0 mm 3 mps 740 mmHg 97%
    05:00 +19°C° 0 mm 3 mps 740 mmHg 97%
    06:00 +20°C° 0 mm 3 mps 740 mmHg 93%
    07:00 +20°C° 0 mm 3 mps 740 mmHg 90%
    08:00 +21°C° 0 mm 4 mps 740 mmHg 86%
    09:00 +23°C° 0 mm 4 mps 740 mmHg 74%
    10:00 +25°C° 0 mm 5 mps 741 mmHg 62%
    11:00 +27°C° 0 mm 5 mps 741 mmHg 50%
    12:00 +27°C° 0 mm 5 mps 741 mmHg 49%
    13:00 +28°C° 0 mm 5 mps 740 mmHg 49%
    14:00 +28°C° 0 mm 5 mps 740 mmHg 48%
    15:00 +28°C° 0 mm 5 mps 740 mmHg 50%
    16:00 +27°C° 0 mm 4 mps 740 mmHg 53%
    17:00 +27°C° 0 mm 4 mps 740 mmHg 56%
    18:00 +25°C° 0 mm 4 mps 741 mmHg 62%
    19:00 +24°C° 0 mm 3 mps 741 mmHg 68%
    20:00 +21°C° 0 mm 3 mps 741 mmHg 75%
    21:00 +21°C° 0 mm 3 mps 741 mmHg 76%
    22:00 +20°C° 0 mm 3 mps 741 mmHg 77%
    23:00 +19°C° 0 mm 3 mps 742 mmHg 78%

    26 July, Thursday

    Time Temperature Precipitation Wind Pressure Humidity
    00:00 +19°C° 0 mm 3 mps 742 mmHg 79%
    01:00 +18°C° 0 mm 3 mps 742 mmHg 81%
    02:00 +17°C° 0 mm 3 mps 742 mmHg 82%
    03:00 +17°C° 0 mm 3 mps 742 mmHg 81%
    04:00 +17°C° 0 mm 3 mps 743 mmHg 81%
    05:00 +17°C° 0 mm 3 mps 743 mmHg 80%
    06:00 +19°C° 0 mm 3 mps 743 mmHg 75%
    07:00 +20°C° 0 mm 3 mps 743 mmHg 70%
    08:00 +22°C° 0 mm 3 mps 743 mmHg 65%
    09:00 +25°C° 0 mm 3 mps 744 mmHg 60%
    10:00 +26°C° 0 mm 3 mps 744 mmHg 55%
    11:00 +28°C° 0 mm 3 mps 744 mmHg 49%
    12:00 +29°C° 0 mm 3 mps 744 mmHg 48%
    13:00 +30°C° 0 mm 3 mps 744 mmHg 46%
    14:00 +30°C° 0 mm 3 mps 743 mmHg 45%
    15:00 +30°C° 0 mm 3 mps 743 mmHg 48%
    16:00 +30°C° 0 mm 3 mps 743 mmHg 52%
    17:00 +30°C° 0 mm 2 mps 743 mmHg 55%
    18:00 +28°C° 0 mm 2 mps 744 mmHg 63%
    19:00 +26°C° 0 mm 2 mps 744 mmHg 71%
    20:00 +24°C° 0 mm 2 mps 744 mmHg 80%
    21:00 +23°C° 0 mm 2 mps 744 mmHg 82%
    22:00 +21°C° 0 mm 2 mps 744 mmHg 85%
    23:00 +20°C° 0 mm 2 mps 745 mmHg 88%
    Show more